When you browse on this site, cookies collect data to enhance your experience and personalize the content and advertising you see.
Visit our Privacy Policy to learn more. By continuing to use the site, you agree to this use of cookies and data.
  • In Lithuania
  • List of Countries
  • For 7 days
  • Water Temperature
  • Satellite Maps
  • Weather Map
  • Weather Widgets
  • user-avatar
    Login

    Hourly Weather Buenos Aires

    Today, 16 July, Tuesday

    Time Temperature Precipitation Wind Pressure Humidity
    00:00 +11°C° 0 mm 1 mps 766 mmHg 61%
    01:00 +10°C° 0 mm 1 mps 766 mmHg 62%
    02:00 +10°C° 0 mm 1 mps 766 mmHg 62%
    03:00 +10°C° 0 mm 1 mps 766 mmHg 62%
    04:00 +9°C° 0 mm 1 mps 766 mmHg 63%
    05:00 +8°C° 0 mm 0 mps 765 mmHg 64%
    06:00 +8°C° 0 mm 0 mps 766 mmHg 63%
    07:00 +10°C° 0 mm 1 mps 767 mmHg 62%
    08:00 +10°C° 0 mm 1 mps 767 mmHg 61%
    09:00 +10°C° 0 mm 2 mps 767 mmHg 56%
    10:00 +13°C° 0 mm 2 mps 767 mmHg 50%
    11:00 +13°C° 0 mm 3 mps 767 mmHg 44%
    12:00 +14°C° 0 mm 3 mps 767 mmHg 43%
    13:00 +14°C° 0 mm 3 mps 766 mmHg 43%
    14:00 +16°C° 0 mm 3 mps 766 mmHg 42%
    15:00 +14°C° 0 mm 3 mps 766 mmHg 45%
    16:00 +14°C° 0 mm 3 mps 766 mmHg 48%
    17:00 +13°C° 0 mm 3 mps 766 mmHg 52%
    18:00 +12°C° 0 mm 3 mps 766 mmHg 55%
    19:00 +12°C° 0 mm 4 mps 766 mmHg 59%
    20:00 +12°C° 0 mm 4 mps 767 mmHg 62%
    21:00 +11°C° 0 mm 4 mps 767 mmHg 64%
    22:00 +10°C° 0 mm 5 mps 767 mmHg 65%
    23:00 +10°C° 0 mm 5 mps 767 mmHg 66%

    Tomorrow, 17 July, Wednesday

    Time Temperature Precipitation Wind Pressure Humidity
    00:00 +10°C° 0 mm 5 mps 767 mmHg 67%
    01:00 +9°C° 0 mm 5 mps 767 mmHg 68%
    02:00 +10°C° 0 mm 4 mps 767 mmHg 70%
    03:00 +9°C° 0 mm 5 mps 767 mmHg 70%
    04:00 +8°C° 0 mm 5 mps 767 mmHg 71%
    05:00 +8°C° 0 mm 5 mps 767 mmHg 72%
    06:00 +8°C° 0 mm 5 mps 767 mmHg 71%
    07:00 +8°C° 0 mm 5 mps 767 mmHg 70%
    08:00 +8°C° 0 mm 6 mps 767 mmHg 69%
    09:00 +10°C° 0 mm 5 mps 767 mmHg 63%
    10:00 +12°C° 0 mm 5 mps 767 mmHg 56%
    11:00 +13°C° 0 mm 5 mps 766 mmHg 50%
    12:00 +14°C° 0 mm 5 mps 766 mmHg 49%
    13:00 +14°C° 0 mm 4 mps 765 mmHg 47%
    14:00 +15°C° 0 mm 4 mps 765 mmHg 46%
    15:00 +15°C° 0 mm 4 mps 765 mmHg 50%
    16:00 +14°C° 0 mm 4 mps 764 mmHg 54%
    17:00 +13°C° 0 mm 4 mps 764 mmHg 59%
    18:00 +13°C° 0 mm 5 mps 764 mmHg 62%
    19:00 +13°C° 0 mm 5 mps 764 mmHg 66%
    20:00 +13°C° 0 mm 5 mps 763 mmHg 69%
    21:00 +13°C° 0 mm 5 mps 764 mmHg 71%
    22:00 +12°C° 0 mm 5 mps 764 mmHg 72%
    23:00 +12°C° 0 mm 4 mps 764 mmHg 74%

    Day after tomorrow, 18 July, Thursday

    Time Temperature Precipitation Wind Pressure Humidity
    00:00 +12°C° 0 mm 4 mps 764 mmHg 76%
    01:00 +12°C° 0 mm 4 mps 764 mmHg 77%
    02:00 +12°C° 0 mm 4 mps 764 mmHg 79%
    03:00 +11°C° 0 mm 4 mps 764 mmHg 81%
    04:00 +11°C° 0 mm 3 mps 764 mmHg 83%
    05:00 +11°C° 0 mm 3 mps 764 mmHg 85%
    06:00 +12°C° 0 mm 2 mps 765 mmHg 85%
    07:00 +12°C° 0 mm 2 mps 765 mmHg 84%
    08:00 +12°C° 0 mm 1 mps 766 mmHg 84%
    09:00 +13°C° 0 mm 1 mps 766 mmHg 79%
    10:00 +14°C° 0 mm 1 mps 766 mmHg 75%
    11:00 +14°C° 0 mm 1 mps 766 mmHg 71%
    12:00 +14°C° 0 mm 1 mps 766 mmHg 70%
    13:00 +15°C° 0 mm 1 mps 766 mmHg 69%
    14:00 +15°C° 0 mm 1 mps 765 mmHg 68%
    15:00 +14°C° 0 mm 1 mps 765 mmHg 71%
    16:00 +14°C° 0 mm 2 mps 765 mmHg 74%
    17:00 +13°C° 0 mm 2 mps 766 mmHg 78%
    18:00 +12°C° 0 mm 3 mps 766 mmHg 79%
    19:00 +12°C° 0 mm 3 mps 766 mmHg 80%
    20:00 +12°C° 0 mm 3 mps 767 mmHg 81%
    21:00 +12°C° 0 mm 4 mps 767 mmHg 82%
    22:00 +12°C° 0 mm 4 mps 767 mmHg 82%
    23:00 +12°C° 0 mm 4 mps 767 mmHg 82%

    19 July, Friday

    Time Temperature Precipitation Wind Pressure Humidity
    00:00 +12°C° 0 mm 3 mps 766 mmHg 82%
    01:00 +12°C° 0 mm 3 mps 766 mmHg 83%
    02:00 +11°C° 0 mm 3 mps 765 mmHg 83%
    03:00 +12°C° 0 mm 2 mps 765 mmHg 85%
    04:00 +12°C° 0 mm 2 mps 765 mmHg 86%
    05:00 +12°C° 0 mm 1 mps 764 mmHg 88%
    06:00 +12°C° 0 mm 1 mps 764 mmHg 88%
    07:00 +12°C° 0 mm 1 mps 764 mmHg 88%
    08:00 +12°C° 0 mm 2 mps 764 mmHg 88%
    09:00 +13°C° 0 mm 2 mps 764 mmHg 80%
    10:00 +15°C° 0 mm 2 mps 763 mmHg 73%
    11:00 +16°C° 0 mm 3 mps 763 mmHg 65%
    12:00 +17°C° 0 mm 3 mps 762 mmHg 62%
    13:00 +17°C° 0 mm 3 mps 761 mmHg 60%
    14:00 +18°C° 0 mm 3 mps 760 mmHg 57%
    15:00 +18°C° 0 mm 3 mps 760 mmHg 60%
    16:00 +17°C° 0 mm 3 mps 760 mmHg 64%
    17:00 +17°C° 0 mm 4 mps 759 mmHg 67%
    18:00 +15°C° 0 mm 4 mps 759 mmHg 73%
    19:00 +15°C° 0 mm 4 mps 759 mmHg 78%
    20:00 +15°C° 0 mm 4 mps 759 mmHg 83%
    21:00 +14°C° 0 mm 4 mps 759 mmHg 85%
    22:00 +14°C° 0 mm 3 mps 759 mmHg 87%
    23:00 +14°C° 0 mm 3 mps 759 mmHg 88%

    20 July, Saturday

    Time Temperature Precipitation Wind Pressure Humidity
    00:00 +14°C° 0 mm 3 mps 759 mmHg 88%
    01:00 +14°C° 0 mm 3 mps 758 mmHg 88%
    02:00 +14°C° 0 mm 3 mps 758 mmHg 88%
    03:00 +14°C° 0.1 mm 3 mps 758 mmHg 89%
    04:00 +14°C° 0.1 mm 3 mps 757 mmHg 90%
    05:00 +14°C° 0.1 mm 3 mps 757 mmHg 90%
    06:00 +14°C° 0.1 mm 3 mps 757 mmHg 91%
    07:00 +14°C° 0.1 mm 3 mps 757 mmHg 91%
    08:00 +15°C° 0.1 mm 2 mps 757 mmHg 91%
    09:00 +16°C° 0.1 mm 2 mps 756 mmHg 90%
    10:00 +16°C° 0.1 mm 2 mps 756 mmHg 89%
    11:00 +17°C° 0.1 mm 2 mps 756 mmHg 87%
    12:00 +17°C° 0.2 mm 2 mps 755 mmHg 88%
    13:00 +17°C° 0.2 mm 3 mps 754 mmHg 88%
    14:00 +17°C° 0.2 mm 3 mps 753 mmHg 88%
    15:00 +17°C° 0.6 mm 2 mps 753 mmHg 91%
    16:00 +17°C° 0.6 mm 2 mps 753 mmHg 94%
    17:00 +17°C° 0.6 mm 2 mps 753 mmHg 97%
    18:00 +17°C° 0.1 mm 2 mps 753 mmHg 97%
    19:00 +17°C° 0.1 mm 3 mps 753 mmHg 97%
    20:00 +17°C° 0.1 mm 3 mps 753 mmHg 98%
    21:00 +17°C° 1.4 mm 3 mps 753 mmHg 98%
    22:00 +17°C° 1.4 mm 4 mps 752 mmHg 98%
    23:00 +17°C° 1.4 mm 4 mps 752 mmHg 98%

    21 July, Sunday

    Time Temperature Precipitation Wind Pressure Humidity
    00:00 +17°C° 3.3 mm 4 mps 752 mmHg 95%
    01:00 +15°C° 3.3 mm 5 mps 752 mmHg 93%
    02:00 +14°C° 3.3 mm 5 mps 752 mmHg 90%
    03:00 +13°C° 1 mm 5 mps 752 mmHg 89%
    04:00 +13°C° 1 mm 5 mps 753 mmHg 88%
    05:00 +12°C° 1 mm 5 mps 753 mmHg 87%
    06:00 +12°C° 1.6 mm 5 mps 753 mmHg 87%
    07:00 +10°C° 1.6 mm 5 mps 754 mmHg 87%
    08:00 +10°C° 1.6 mm 5 mps 754 mmHg 88%
    09:00 +10°C° 0.4 mm 5 mps 755 mmHg 86%
    10:00 +12°C° 0.4 mm 5 mps 755 mmHg 85%
    11:00 +12°C° 0.4 mm 5 mps 755 mmHg 83%
    12:00 +12°C° 0.6 mm 5 mps 755 mmHg 84%
    13:00 +10°C° 0.6 mm 6 mps 756 mmHg 84%
    14:00 +10°C° 0.6 mm 7 mps 756 mmHg 85%
    15:00 +10°C° 0.2 mm 7 mps 757 mmHg 81%
    16:00 +10°C° 0.2 mm 7 mps 757 mmHg 77%
    17:00 +10°C° 0.2 mm 8 mps 758 mmHg 74%
    18:00 +10°C° 0.1 mm 6 mps 759 mmHg 69%
    19:00 +10°C° 0.1 mm 5 mps 760 mmHg 64%
    20:00 +11°C° 0.1 mm 4 mps 760 mmHg 60%
    21:00 +10°C° 0 mm 5 mps 761 mmHg 62%
    22:00 +9°C° 0 mm 5 mps 761 mmHg 64%
    23:00 +9°C° 0 mm 6 mps 761 mmHg 67%
    Show more